Starlink 6144

operational
NORAD ID: 56894 Int'l Des: 2023-083 Owner: SPXS Country: US Constellation: starlink
LEOCIRCULAR

Starlink 6144について

説明を読み込み中...

リアルタイム位置

3D地球を読み込み中...

次回通過

高度履歴

Altitude vs Time

uPlot chart will show altitude changes over time

軌道要素

1 56894U 23083U 26035.32323142 -.00000515 00000-0 -23079-4 0 9992
2 56894 43.0012 262.8749 0001321 266.3569 93.7123 15.02530610146779
Epoch: Feb 4, 2026 • Age: 17 hours

現在のステータス

高度 558.4 km
速度 7.58 km/s
衛星直下点 9.83°N, 73.41°W
打ち上げ日 Jun 12, 2023
運用期間 2.6 years
タイプ internet

技術仕様

分類 Payload
質量 305.00 kg
乾燥質量 290.00 kg
総質量 305.00 kg
長さ 0.20 m
直径 2.80 m
スパン 9.00 m
形状 Box + pan
製造者 SPXS
バスタイプ Starlink
フェーズステータス In Orbit
所有者/国 SPXS/US

大規模コンステレーション

Loading constellations...